This is the latest recevied weather packets stored in our database for station/object NC4J. If no packets are shown the sender has not sent any weather packets the latest 1 day(s).
| Time | Temp. | Humidity | Pressure | Rain* | Wind** | Luminosity | Snow |
|---|---|---|---|---|---|---|---|
| 1778064172 | 17.22° C | 62% | 1014 hPa | 0 mm | 0.45 m/s, 68° | 0 W/m² | - |
| 1778063871 | 17.22° C | 62% | 1013.9 hPa | 0 mm | 0 m/s | 0 W/m² | - |
| 1778063567 | 17.22° C | 61% | 1013.8 hPa | 0 mm | 0.45 m/s, 29° | 0 W/m² | - |
| 1778063264 | 17.22° C | 60% | 1013.6 hPa | 0 mm | 0.45 m/s, 49° | 0 W/m² | - |
| 1778062962 | 17.22° C | 60% | 1013.5 hPa | 0 mm | 0.89 m/s, 130° | 0 W/m² | - |
| 1778062659 | 17.22° C | 60% | 1013.8 hPa | 0 mm | 0.89 m/s, 134° | 0 W/m² | - |
| 1778062355 | 17.22° C | 60% | 1013.8 hPa | 0 mm | 0.45 m/s, 101° | 0 W/m² | - |
| 1778062053 | 17.22° C | 59% | 1013.6 hPa | 0 mm | 0.45 m/s, 107° | 0 W/m² | - |
| 1778061751 | 17.22° C | 59% | 1013.7 hPa | 0 mm | 0 m/s | 0 W/m² | - |
| 1778061449 | 17.22° C | 59% | 1013.5 hPa | 0 mm | 0.45 m/s, 18° | 0 W/m² | - |
| 1778061146 | 17.78° C | 58% | 1013.6 hPa | 0 mm | 0 m/s | 0 W/m² | - |
| 1778060843 | 17.78° C | 57% | 1013.6 hPa | 0 mm | 0.45 m/s, 107° | 0 W/m² | - |
| 1778060541 | 17.78° C | 58% | 1013.7 hPa | 0 mm | 0.45 m/s, 107° | 0 W/m² | - |
| 1778060240 | 17.78° C | 56% | 1013.4 hPa | 0 mm | 0.45 m/s, 113° | 0 W/m² | - |
| 1778059936 | 17.78° C | 56% | 1013.3 hPa | 0 mm | 0.89 m/s, 153° | 0 W/m² | - |
| 1778059634 | 17.78° C | 56% | 1013.3 hPa | 0 mm | 0.89 m/s, 116° | 0 W/m² | - |
| 1778059331 | 17.78° C | 56% | 1013.6 hPa | 0 mm | 0.45 m/s, 105° | 0 W/m² | - |
| 1778059029 | 18.33° C | 55% | 1013.4 hPa | 0 mm | 0 m/s | 0 W/m² | - |
| 1778058726 | 18.33° C | 55% | 1013.8 hPa | 0 mm | 0.45 m/s, 48° | 0 W/m² | - |
| 1778058424 | 18.33° C | 54% | 1013.6 hPa | 0 mm | 0.45 m/s, 89° | 0 W/m² | - |
| 1778058120 | 18.33° C | 54% | 1013.7 hPa | 0 mm | 0.45 m/s, 75° | 0 W/m² | - |
| 1778057817 | 18.33° C | 54% | 1013.5 hPa | 0 mm | 0 m/s | 0 W/m² | - |
| 1778057513 | 18.33° C | 54% | 1013.7 hPa | 0 mm | 0.45 m/s, 93° | 0 W/m² | - |
| 1778057210 | 18.33° C | 56% | 1013.7 hPa | 0 mm | 0.45 m/s, 88° | 0 W/m² | - |
| 1778056907 | 18.33° C | 55% | 1013.5 hPa | 0 mm | 0.45 m/s, 69° | 0 W/m² | - |
* Rain latest hour (hover to see other rain measurements)
** Current wind speed in m/s (hover to see current wind gust speed)